Location: St. Louis
(38.6270°N, 90.1994°W)
Time: 07:26:25
(UTC-06:00)

Transit 2A Rocket - Pass Details

Date: 29 November 2021
Orbit: 584 x 917 km, 66.7° (Epoch: 23 January)

Event Time Altitude Azimuth Distance (km) Brightness Sun altitude
Rises 17:34:05 0° 332° (NNW) 3,556 8.6 -10.5°
Reaches altitude 10° 17:36:40 10° 333° (NNW) 2,597 7.8 -11.0°
Maximum altitude 17:42:45 81° 61° (ENE) 891 5.2 -12.1°
Drops below altitude 10° 17:48:26 10° 149° (SSE) 2,428 7.5 -13.1°
Sets 17:50:47 0° 150° (SSE) 3,310 8.2 -13.6°
